Location: Oshawa
(43.9000°N, 78.8670°W)
Time: 06:15:48
(UTC-04:00)

Cosmos 1805 Rocket - Visible Passes

Search period start: 05 September 2015 00:00
Search period end: 15 September 2015 00:00
Orbit: 606 x 632 km, 82.5° (Epoch: 04 September)

Date Brightness Start Highest point End Pass type
(mag) Time Alt. Az. Time Alt. Az. Time Alt. Az.
05 Sep 6.0 23:30:06 10° N 23:31:24 19° N 23:31:24 19° N visible
06 Sep 5.9 22:10:43 10° NNE 22:11:24 12° NE 22:11:24 12° NE visible
06 Sep 6.3 23:47:29 10° NNW 23:48:33 17° NNW 23:48:33 17° NNW visible
07 Sep 5.7 22:27:11 10° NNE 22:28:33 17° NNE 22:28:33 17° NNE visible
08 Sep 6.6 00:05:11 10° NNW 00:05:42 13° NW 00:05:42 13° NW visible
08 Sep 5.6 22:44:06 10° N 22:45:43 21° N 22:45:43 21° N visible
09 Sep 5.7 23:01:16 10° N 23:02:53 22° N 23:02:53 22° N visible
10 Sep 5.7 21:41:47 10° NNE 21:42:56 14° NE 21:42:56 14° NE visible
10 Sep 6.1 23:18:40 10° NNW 23:20:05 19° NNW 23:20:05 19° NNW visible
11 Sep 5.4 21:58:19 10° NNE 22:00:08 21° NNE 22:00:08 21° NNE visible
11 Sep 6.4 23:36:22 10° NW 23:37:17 14° NW 23:37:17 14° NW visible
12 Sep 5.2 22:15:15 10° N 22:17:21 27° NNE 22:17:21 27° NNE visible
13 Sep 5.3 22:32:25 10° N 22:34:35 29° NNW 22:34:35 29° NNW visible
14 Sep 5.4 21:12:52 10° NNE 21:14:41 16° NE 21:14:41 16° NE visible
14 Sep 5.7 22:49:50 10° NNW 22:51:50 24° NW 22:51:50 24° NW visible
